When you browse on this site, cookies collect data to enhance your experience and personalize the content and advertising you see.
Visit our Privacy Policy to learn more. By continuing to use the site, you agree to this use of cookies and data.
  • Em Portugal
  • Lista de países
  • Para 7 dias
  • Temperatura da água
  • Mapa do tempo
  • Widgets de tempo
  • user-avatar
    Iniciar Sessão

    Previsão horária em Lindenberg im Allgäu

    Hoje, 29 Fevereiro, Sábado

    Tempo Temperatura Precipitação Vento Pressão Humidade
    00:00 +1°C° 0 mm 3 m/s 754 mmHg 81%
    01:00 +1°C° 0 mm 3 m/s 753 mmHg 80%
    02:00 0°C° 0.1 mm 4 m/s 752 mmHg 81%
    03:00 0°C° 0.1 mm 4 m/s 751 mmHg 83%
    04:00 0°C° 0.1 mm 5 m/s 750 mmHg 84%
    05:00 0°C° 0.9 mm 5 m/s 749 mmHg 87%
    06:00 -1°C° 0.9 mm 6 m/s 748 mmHg 90%
    07:00 +1°C° 0.9 mm 6 m/s 748 mmHg 93%
    08:00 +2°C° 0.1 mm 6 m/s 747 mmHg 90%
    09:00 +3°C° 0.1 mm 6 m/s 746 mmHg 87%
    10:00 +4°C° 0.1 mm 6 m/s 745 mmHg 83%
    11:00 +5°C° 0 mm 6 m/s 745 mmHg 81%
    12:00 +8°C° 0 mm 5 m/s 745 mmHg 78%
    13:00 +9°C° 0 mm 5 m/s 744 mmHg 76%
    14:00 +9°C° 0 mm 5 m/s 744 mmHg 77%
    15:00 +9°C° 0 mm 5 m/s 743 mmHg 78%
    16:00 +9°C° 0 mm 5 m/s 742 mmHg 79%
    17:00 +8°C° 0 mm 6 m/s 742 mmHg 79%
    18:00 +8°C° 0 mm 6 m/s 742 mmHg 78%
    19:00 +7°C° 0 mm 6 m/s 742 mmHg 78%
    20:00 +6°C° 0.1 mm 7 m/s 742 mmHg 78%
    21:00 +8°C° 0.1 mm 7 m/s 742 mmHg 79%
    22:00 +8°C° 0.1 mm 7 m/s 742 mmHg 79%
    23:00 +7°C° 0.1 mm 6 m/s 743 mmHg 78%

    Amanhã, 1 Março, Domingo

    Tempo Temperatura Precipitação Vento Pressão Humidade
    00:00 +6°C° 0.1 mm 4 m/s 743 mmHg 78%
    01:00 +5°C° 0.1 mm 3 m/s 744 mmHg 77%
    02:00 +4°C° 0 mm 3 m/s 744 mmHg 80%
    03:00 +4°C° 0 mm 3 m/s 744 mmHg 82%
    04:00 +3°C° 0 mm 4 m/s 744 mmHg 84%
    05:00 +3°C° 0 mm 4 m/s 744 mmHg 83%
    06:00 +4°C° 0 mm 4 m/s 744 mmHg 83%
    07:00 +3°C° 0 mm 5 m/s 744 mmHg 82%
    08:00 +3°C° 0.1 mm 5 m/s 744 mmHg 79%
    09:00 +4°C° 0.1 mm 6 m/s 744 mmHg 75%
    10:00 +5°C° 0.1 mm 7 m/s 744 mmHg 71%
    11:00 +6°C° 0.2 mm 7 m/s 744 mmHg 67%
    12:00 +6°C° 0.2 mm 7 m/s 744 mmHg 63%
    13:00 +8°C° 0.2 mm 7 m/s 744 mmHg 58%
    14:00 +8°C° 0.1 mm 6 m/s 744 mmHg 59%
    15:00 +8°C° 0.1 mm 5 m/s 744 mmHg 60%
    16:00 +7°C° 0.1 mm 4 m/s 744 mmHg 61%
    17:00 +7°C° 0 mm 3 m/s 744 mmHg 66%
    18:00 +5°C° 0 mm 3 m/s 744 mmHg 72%
    19:00 +5°C° 0 mm 2 m/s 744 mmHg 77%
    20:00 +4°C° 0 mm 3 m/s 744 mmHg 80%
    21:00 +3°C° 0 mm 3 m/s 743 mmHg 82%
    22:00 +3°C° 0 mm 3 m/s 743 mmHg 84%
    23:00 +4°C° 0 mm 3 m/s 743 mmHg 83%

    Depois de amanhã, 2 Março, Segunda-feira

    Tempo Temperatura Precipitação Vento Pressão Humidade
    00:00 +4°C° 0 mm 4 m/s 742 mmHg 82%
    01:00 +4°C° 0 mm 4 m/s 742 mmHg 81%
    02:00 +4°C° 0 mm 4 m/s 741 mmHg 80%
    03:00 +3°C° 0 mm 5 m/s 741 mmHg 79%
    04:00 +5°C° 0 mm 5 m/s 740 mmHg 78%
    05:00 +3°C° 0 mm 5 m/s 740 mmHg 77%
    06:00 +3°C° 0 mm 5 m/s 740 mmHg 77%
    07:00 +2°C° 0 mm 5 m/s 740 mmHg 76%
    08:00 +3°C° 0 mm 5 m/s 740 mmHg 73%
    09:00 +5°C° 0 mm 5 m/s 740 mmHg 69%
    10:00 +6°C° 0 mm 5 m/s 741 mmHg 65%
    11:00 +6°C° 0 mm 5 m/s 740 mmHg 62%
    12:00 +7°C° 0 mm 4 m/s 740 mmHg 59%
    13:00 +9°C° 0 mm 3 m/s 740 mmHg 55%
    14:00 +8°C° 0 mm 4 m/s 740 mmHg 56%
    15:00 +8°C° 0 mm 4 m/s 739 mmHg 57%
    16:00 +8°C° 0 mm 5 m/s 739 mmHg 59%
    17:00 +7°C° 0 mm 4 m/s 739 mmHg 65%
    18:00 +7°C° 0 mm 4 m/s 739 mmHg 72%
    19:00 +6°C° 0 mm 4 m/s 739 mmHg 79%
    20:00 +6°C° 0 mm 4 m/s 740 mmHg 79%
    21:00 +5°C° 0 mm 4 m/s 740 mmHg 79%
    22:00 +5°C° 0 mm 4 m/s 740 mmHg 80%
    23:00 +4°C° 0 mm 3 m/s 740 mmHg 81%

    3 Março, Terça-feira

    Tempo Temperatura Precipitação Vento Pressão Humidade
    00:00 +3°C° 0 mm 3 m/s 740 mmHg 81%
    01:00 +3°C° 0 mm 3 m/s 741 mmHg 82%
    02:00 +3°C° 0 mm 3 m/s 741 mmHg 83%
    03:00 +2°C° 0 mm 3 m/s 741 mmHg 83%
    04:00 +2°C° 0 mm 3 m/s 741 mmHg 83%
    05:00 +2°C° 0 mm 3 m/s 742 mmHg 84%
    06:00 +2°C° 0 mm 3 m/s 742 mmHg 85%
    07:00 +3°C° 0 mm 3 m/s 742 mmHg 86%
    08:00 +3°C° 0 mm 3 m/s 743 mmHg 85%
    09:00 +3°C° 0 mm 4 m/s 743 mmHg 83%
    10:00 +4°C° 0 mm 4 m/s 744 mmHg 82%
    11:00 +4°C° 0 mm 4 m/s 744 mmHg 78%
    12:00 +5°C° 0 mm 4 m/s 744 mmHg 75%
    13:00 +5°C° 0 mm 4 m/s 745 mmHg 71%
    14:00 +5°C° 0 mm 4 m/s 745 mmHg 68%
    15:00 +6°C° 0 mm 4 m/s 745 mmHg 65%
    16:00 +6°C° 0 mm 4 m/s 745 mmHg 63%
    17:00 +5°C° 0 mm 3 m/s 745 mmHg 68%
    18:00 +4°C° 0 mm 3 m/s 746 mmHg 74%
    19:00 +4°C° 0 mm 2 m/s 746 mmHg 79%
    20:00 +3°C° 0 mm 2 m/s 746 mmHg 81%
    21:00 +2°C° 0 mm 3 m/s 747 mmHg 82%
    22:00 +2°C° 0 mm 3 m/s 747 mmHg 84%
    23:00 +1°C° 0 mm 3 m/s 747 mmHg 86%

    4 Março, Quarta-feira

    Tempo Temperatura Precipitação Vento Pressão Humidade
    00:00 +1°C° 0 mm 3 m/s 747 mmHg 87%
    01:00 +1°C° 0 mm 3 m/s 748 mmHg 88%
    02:00 0°C° 0 mm 3 m/s 748 mmHg 89%
    03:00 0°C° 0 mm 3 m/s 748 mmHg 90%
    04:00 +1°C° 0 mm 2 m/s 748 mmHg 90%
    05:00 -1°C° 0 mm 2 m/s 748 mmHg 90%
    06:00 -1°C° 0 mm 2 m/s 748 mmHg 91%
    07:00 -1°C° 0 mm 2 m/s 749 mmHg 91%
    08:00 0°C° 0 mm 3 m/s 749 mmHg 86%
    09:00 +2°C° 0 mm 3 m/s 749 mmHg 81%
    10:00 +3°C° 0 mm 3 m/s 749 mmHg 77%
    11:00 +4°C° 0 mm 4 m/s 749 mmHg 76%
    12:00 +4°C° 0 mm 4 m/s 749 mmHg 76%
    13:00 +5°C° 0 mm 4 m/s 749 mmHg 76%
    14:00 +5°C° 0.1 mm 4 m/s 749 mmHg 77%
    15:00 +4°C° 0.1 mm 4 m/s 749 mmHg 78%
    16:00 +4°C° 0.1 mm 4 m/s 749 mmHg 79%
    17:00 +4°C° 0.1 mm 3 m/s 750 mmHg 82%
    18:00 +3°C° 0.1 mm 3 m/s 750 mmHg 85%
    19:00 +3°C° 0.1 mm 2 m/s 750 mmHg 88%
    20:00 +2°C° 0 mm 3 m/s 750 mmHg 88%
    21:00 +2°C° 0 mm 3 m/s 750 mmHg 87%
    22:00 +1°C° 0 mm 3 m/s 751 mmHg 86%
    23:00 +1°C° 0 mm 3 m/s 750 mmHg 87%

    5 Março, Quinta-feira

    Tempo Temperatura Precipitação Vento Pressão Humidade
    00:00 +1°C° 0 mm 3 m/s 750 mmHg 88%
    01:00 0°C° 0 mm 3 m/s 750 mmHg 89%
    02:00 0°C° 0 mm 3 m/s 750 mmHg 90%
    03:00 -1°C° 0 mm 3 m/s 750 mmHg 91%
    04:00 -1°C° 0 mm 2 m/s 749 mmHg 92%
    05:00 -1°C° 0 mm 2 m/s 749 mmHg 92%
    06:00 -1°C° 0 mm 2 m/s 749 mmHg 93%
    07:00 -2°C° 0 mm 2 m/s 749 mmHg 93%
    08:00 +1°C° 0 mm 2 m/s 748 mmHg 85%
    09:00 +3°C° 0 mm 2 m/s 748 mmHg 77%
    10:00 +5°C° 0 mm 2 m/s 748 mmHg 69%
    11:00 +6°C° 0 mm 2 m/s 747 mmHg 62%
    12:00 +7°C° 0 mm 2 m/s 747 mmHg 56%
    13:00 +8°C° 0 mm 2 m/s 746 mmHg 50%
    14:00 +8°C° 0 mm 2 m/s 745 mmHg 51%
    15:00 +8°C° 0 mm 2 m/s 745 mmHg 51%
    16:00 +8°C° 0 mm 2 m/s 744 mmHg 52%
    17:00 +6°C° 0 mm 2 m/s 744 mmHg 59%
    18:00 +5°C° 0 mm 2 m/s 743 mmHg 66%
    19:00 +4°C° 0 mm 2 m/s 743 mmHg 72%
    20:00 +3°C° 0 mm 2 m/s 743 mmHg 73%
    21:00 +2°C° 0 mm 3 m/s 742 mmHg 75%
    22:00 +2°C° 0 mm 3 m/s 742 mmHg 76%
    23:00 +2°C° 0 mm 3 m/s 742 mmHg 76%
    Mostrar mais